This is the latest recevied weather packets stored in our database for station/object DG2US-10. If no packets are shown the sender has not sent any weather packets the latest 1 day(s).
| Time | Temp. | Humidity | Pressure | Rain* | Wind** | Luminosity | Snow |
|---|---|---|---|---|---|---|---|
| 1777747230 | 27.22° C | 23% | 1017 hPa | - | - | - | - |
| 1777746330 | 27.22° C | 23% | 1017 hPa | - | - | - | - |
| 1777745430 | 27.78° C | 22% | 1016.9 hPa | - | - | - | - |
| 1777744530 | 27.78° C | 22% | 1017 hPa | - | - | - | - |
| 1777743630 | 28.33° C | 22% | 1016.9 hPa | - | - | - | - |
| 1777742730 | 28.33° C | 20% | 1017.1 hPa | - | - | - | - |
| 1777741830 | 28.33° C | 21% | 1017.1 hPa | - | - | - | - |
| 1777740930 | 28.89° C | 22% | 1017.2 hPa | - | - | - | - |
| 1777740030 | 28.33° C | 21% | 1017.4 hPa | - | - | - | - |
| 1777739130 | 28.89° C | 23% | 1017.5 hPa | - | - | - | - |
| 1777738230 | 31.11° C | 19% | 1017.7 hPa | - | - | - | - |
| 1777737330 | 32.78° C | 19% | 1018 hPa | - | - | - | - |
| 1777736430 | 32.78° C | 21% | 1018.1 hPa | - | - | - | - |
| 1777735529 | 31.11° C | 22% | 1018.3 hPa | - | - | - | - |
| 1777734629 | 33.33° C | 21% | 1018.4 hPa | - | - | - | - |
| 1777733729 | 32.78° C | 22% | 1018.6 hPa | - | - | - | - |
| 1777732828 | 31.67° C | 22% | 1018.9 hPa | - | - | - | - |
| 1777731928 | 32.22° C | 23% | 1019.1 hPa | - | - | - | - |
| 1777731028 | 31.67° C | 24% | 1019.3 hPa | - | - | - | - |
| 1777730128 | 31.67° C | 24% | 1019.4 hPa | - | - | - | - |
| 1777729228 | 29.44° C | 23% | 1019.6 hPa | - | - | - | - |
| 1777728328 | 27.78° C | 19% | 1019.9 hPa | - | - | - | - |
| 1777727428 | 30° C | 24% | 1020 hPa | - | - | - | - |
| 1777726528 | 28.89° C | 20% | 1020.3 hPa | - | - | - | - |
| 1777725628 | 30° C | 23% | 1020.5 hPa | - | - | - | - |
* Rain since midnight (hover to see other rain measurements)
** Current wind speed in m/s (hover to see current wind gust speed)